SKY MUSTER 1 (NBN1A)

Last updated on Thu Nov 21 2024 00:02:43 GMT+0000 (Coordinated Universal Time)

1 40940U 15054A 24325.32312372 -.00000277 00000+0 00000+0 0 9996 2 40940 0.0149 290.3978 0002008 307.3211 78.7012 1.00270693 33502
UTC large
Height (km)
Speed (km/s)
/
Latitude / Longitude
Inclination (degrees)
Orbital Period (minutes)
Azimuth
Elevation
Range (km)
Doppler Factor

Next 0 passes for location: London (51.5072 / 0.1276)

Sorry there are no passes over London.